FW6809 Weather Reports


time (UTC)temp
C
wind
direction
speed
KPH
gust
KPH
rain 1hr
cm
rain 24hr
cm
rain mn
cm
humidity
%
barometer
mb
20210723155544 28 0 0.0 3.2 0.00 0.00 0.00 39 1021.7
20210723155051 27 0 0.0 0.0 0.00 0.00 0.00 41 1021.9
20210723154605 27 0 0.0 4.8 0.00 0.00 0.00 41 1021.8
20210723154042 27 0 0.0 4.8 0.00 0.00 0.00 41 1021.8
20210723153542 27 126 1.6 4.8 0.00 0.00 0.00 41 1021.8
20210723153113 27 0 1.6 4.8 0.00 0.00 0.00 42 1021.8
20210723152632 27 0 0.0 3.2 0.00 0.00 0.00 42 1021.8
20210723152041 26 120 0.0 3.2 0.00 0.00 0.00 43 1021.7
20210723151605 26 0 0.0 1.6 0.00 0.00 0.00 44 1021.7
20210723151044 26 122 0.0 4.8 0.00 0.00 0.00 44 1021.7
20210723150557 25 0 1.6 4.8 0.00 0.00 0.00 44 1021.8
20210723150046 25 122 0.0 4.8 0.00 0.00 0.00 45 1021.8
20210723145543 25 0 0.0 4.8 0.00 0.00 0.00 45 1021.6
20210723145043 25 123 0.0 3.2 0.00 0.00 0.00 45 1021.8
20210723144617 25 0 0.0 0.0 0.00 0.00 0.00 46 1021.8
20210723144104 25 0 0.0 0.0 0.00 0.00 0.00 46 1021.9
20210723143542 25 0 0.0 0.0 0.00 0.00 0.00 46 1021.9
20210723143109 24 0 0.0 0.0 0.00 0.00 0.00 46 1021.9
20210723142542 24 0 0.0 1.6 0.00 0.00 0.00 47 1021.9
20210723142048 24 0 0.0 1.6 0.00 0.00 0.00 47 1022.0
20210723141615 24 0 0.0 0.0 0.00 0.00 0.00 48 1022.0
20210723141042 23 0 0.0 0.0 0.00 0.00 0.00 48 1021.9
20210723140544 23 0 0.0 0.0 0.00 0.00 0.00 48 1021.9
20210723140152 23 0 0.0 0.0 0.00 0.00 0.00 49 1021.9
20210723135542 23 0 0.0 0.0 0.00 0.00 0.00 49 1021.9
20210723135043 23 0 0.0 0.0 0.00 0.00 0.00 49 1022.0
20210723134746 22 0 0.0 0.0 0.00 0.00 0.00 49 1022.0
20210723134044 22 0 0.0 0.0 0.00 0.00 0.00 49 1022.0
20210723133544 22 0 0.0 0.0 0.00 0.00 0.00 49 1022.0
20210723133147 22 0 0.0 0.0 0.00 0.00 0.00 50 1022.0
20210723132546 22 0 0.0 0.0 0.00 0.00 0.00 50 1021.9
20210723132043 21 0 0.0 0.0 0.00 0.00 0.00 50 1021.9
20210723131639 21 0 0.0 0.0 0.00 0.00 0.00 50 1021.9
20210723131043 21 0 0.0 0.0 0.00 0.00 0.00 50 1021.9
20210723130541 21 0 0.0 0.0 0.00 0.00 0.00 50 1021.9
20210723130114 21 0 0.0 0.0 0.00 0.00 0.00 50 1021.9
20210723125550 20 0 0.0 0.0 0.00 0.00 0.00 50 1022.0
20210723125056 20 0 0.0 0.0 0.00 0.00 0.00 51 1021.9
20210723124620 20 0 0.0 0.0 0.00 0.00 0.00 51 1021.9
20210723124045 20 0 0.0 0.0 0.00 0.00 0.00 51 1021.8
20210723123543 19 0 0.0 0.0 0.00 0.00 0.00 51 1021.8
20210723123108 19 0 0.0 0.0 0.00 0.00 0.00 51 1021.8
20210723122559 19 0 0.0 0.0 0.00 0.00 0.00 51 1021.7
20210723122040 18 0 0.0 0.0 0.00 0.00 0.00 51 1021.7
20210723121717 18 0 0.0 0.0 0.00 0.00 0.00 51 1021.6
20210723121043 18 0 0.0 0.0 0.00 0.00 0.00 51 1021.6
20210723120552 18 0 0.0 0.0 0.00 0.00 0.00 51 1021.4
20210723120243 18 0 0.0 0.0 0.00 0.00 0.00 51 1021.5
20210723115551 18 0 0.0 0.0 0.00 0.00 0.00 51 1021.5
20210723115047 18 0 0.0 0.0 0.00 0.00 0.00 51 1021.6
20210723114743 17 0 0.0 0.0 0.00 0.00 0.00 51 1021.5
20210723114044 17 0 0.0 0.0 0.00 0.00 0.00 51 1021.5
20210723113546 17 0 0.0 0.0 0.00 0.00 0.00 51 1021.5
20210723113205 17 0 0.0 0.0 0.00 0.00 0.00 51 1021.4
20210723112548 17 0 0.0 0.0 0.00 0.00 0.00 51 1021.5
20210723112043 17 0 0.0 0.0 0.00 0.00 0.00 51 1021.6
20210723111555 17 0 0.0 0.0 0.00 0.00 0.00 51 1021.4
20210723111042 17 0 0.0 0.0 0.00 0.00 0.00 51 1021.4
20210723110543 17 0 0.0 0.0 0.00 0.00 0.00 51 1021.4
20210723110128 17 0 0.0 0.0 0.00 0.00 0.00 51 1021.2
20210723105626 17 0 0.0 0.0 0.00 0.00 0.00 51 1021.2
20210723105047 17 0 0.0 0.0 0.00 0.00 0.00 51 1021.2
20210723104632 17 0 0.0 0.0 0.00 0.00 0.00 51 1021.1
20210723104044 17 0 0.0 0.0 0.00 0.00 0.00 51 1021.0
20210723103549 17 0 0.0 0.0 0.00 0.00 0.00 51 1020.9
20210723103142 17 0 0.0 0.0 0.00 0.00 0.00 51 1020.9
20210723102546 17 0 0.0 0.0 0.00 0.00 0.00 51 1020.8
20210723102044 17 0 0.0 0.0 0.00 0.00 0.00 51 1020.7
20210723101618 17 0 0.0 0.0 0.00 0.00 0.00 51 1020.7
20210723101049 17 0 0.0 0.0 0.00 0.00 0.00 51 1020.7
20210723100539 17 0 0.0 0.0 0.00 0.00 0.00 51 1020.7
20210723100201 17 0 0.0 0.0 0.00 0.00 0.00 51 1020.7
20210723095546 17 0 0.0 0.0 0.00 0.00 0.00 51 1020.7
20210723095041 17 0 0.0 0.0 0.00 0.00 0.00 51 1020.6
20210723094612 17 0 0.0 0.0 0.00 0.00 0.00 51 1020.5
20210723094049 17 0 0.0 0.0 0.00 0.00 0.00 51 1020.6
20210723093542 17 0 0.0 0.0 0.00 0.00 0.00 51 1020.6
20210723093222 17 0 0.0 0.0 0.00 0.00 0.00 51 1020.5
20210723092541 17 0 0.0 0.0 0.00 0.00 0.00 51 1020.5
20210723092050 17 0 0.0 0.0 0.00 0.00 0.00 51 1020.5
20210723091726 17 0 0.0 0.0 0.00 0.00 0.00 51 1020.4
20210723091043 17 0 0.0 0.0 0.00 0.00 0.00 51 1020.3
20210723090604 17 0 0.0 0.0 0.00 0.00 0.00 51 1020.4
20210723090127 17 0 0.0 0.0 0.00 0.00 0.00 51 1020.4
20210723085546 17 0 0.0 0.0 0.00 0.00 0.00 51 1020.3
20210723085044 17 0 0.0 0.0 0.00 0.00 0.00 51 1020.3
20210723084641 17 0 0.0 0.0 0.00 0.00 0.00 51 1020.3
20210723084043 17 0 0.0 0.0 0.00 0.00 0.00 51 1020.4
20210723083557 17 0 0.0 0.0 0.00 0.00 0.00 51 1020.3
20210723083208 17 0 0.0 0.0 0.00 0.00 0.00 51 1020.4
20210723082541 18 0 0.0 0.0 0.00 0.00 0.00 51 1020.4
20210723082058 18 0 0.0 0.0 0.00 0.00 0.00 51 1020.5
20210723081622 18 0 0.0 0.0 0.00 0.00 0.00 51 1020.4
20210723081041 17 0 0.0 0.0 0.00 0.00 0.00 51 1020.3
20210723080551 18 0 0.0 0.0 0.00 0.00 0.00 51 1020.3
20210723080122 18 0 0.0 0.0 0.00 0.00 0.00 51 1020.5
20210723075543 18 0 0.0 0.0 0.00 0.00 0.00 51 1020.4
20210723075046 18 0 0.0 0.0 0.00 0.00 0.00 51 1020.4
20210723074746 18 0 0.0 0.0 0.00 0.00 0.00 51 1020.4
20210723074049 18 0 0.0 0.0 0.00 0.00 0.00 51 1020.4
20210723073559 18 0 0.0 0.0 0.00 0.00 0.00 51 1020.6
20210723073121 18 0 0.0 0.0 0.00 0.00 0.00 51 1020.6
20210723072550 18 0 0.0 0.0 0.00 0.00 0.00 51 1020.6
20210723072045 18 0 0.0 0.0 0.00 0.00 0.00 51 1020.7
20210723071641 18 0 0.0 0.0 0.00 0.00 0.00 51 1020.6
20210723071043 18 0 0.0 0.0 0.00 0.00 0.00 51 1020.7
20210723070551 18 0 0.0 0.0 0.00 0.00 0.00 51 1020.7
20210723070110 18 0 0.0 0.0 0.00 0.00 0.00 51 1020.7
20210723065542 18 0 0.0 0.0 0.00 0.00 0.00 51 1020.6
20210723065058 18 0 0.0 0.0 0.00 0.00 0.00 51 1020.7
20210723064623 18 0 0.0 0.0 0.00 0.00 0.00 51 1020.7
20210723064118 18 0 0.0 0.0 0.00 0.00 0.00 51 1020.8
20210723063542 18 0 0.0 0.0 0.00 0.00 0.00 51 1020.7
20210723063111 18 0 0.0 0.0 0.00 0.00 0.00 51 1020.8
20210723062545 18 0 0.0 0.0 0.00 0.00 0.00 51 1020.7
20210723062045 18 0 0.0 0.0 0.00 0.00 0.00 51 1020.8
20210723061628 18 0 0.0 0.0 0.00 0.00 0.00 50 1020.7
20210723061045 18 0 0.0 0.0 0.00 0.00 0.00 51 1020.6
20210723060640 18 0 0.0 0.0 0.00 0.00 0.00 51 1020.6
20210723060236 18 0 0.0 0.0 0.00 0.00 0.00 51 1020.6
20210723055550 18 0 0.0 0.0 0.00 0.00 0.00 50 1020.5
20210723055047 18 0 0.0 0.0 0.00 0.00 0.00 50 1020.5
20210723054636 18 0 0.0 0.0 0.00 0.00 0.00 51 1020.6
20210723054042 18 0 0.0 0.0 0.00 0.00 0.00 51 1020.6
20210723053547 18 0 0.0 0.0 0.00 0.00 0.00 50 1020.6
20210723053258 18 0 0.0 0.0 0.00 0.00 0.00 50 1020.5
20210723052545 19 0 0.0 0.0 0.00 0.00 0.00 50 1020.6
20210723052044 19 0 0.0 0.0 0.00 0.00 0.00 50 1020.7
20210723051715 19 0 0.0 0.0 0.00 0.00 0.00 50 1020.8
20210723051047 19 0 0.0 0.0 0.00 0.00 0.00 50 1020.8
20210723050545 19 0 0.0 0.0 0.00 0.00 0.00 50 1020.9
20210723050200 19 0 0.0 0.0 0.00 0.00 0.00 50 1020.9
20210723045543 19 0 0.0 0.0 0.00 0.00 0.00 51 1020.9
20210723045040 19 0 0.0 0.0 0.00 0.00 0.00 50 1020.9
20210723044622 19 0 0.0 0.0 0.00 0.00 0.00 51 1021.0
20210723044101 19 0 0.0 0.0 0.00 0.00 0.00 51 1021.0
20210723043559 19 0 0.0 0.0 0.00 0.00 0.00 51 1020.9
20210723043138 20 0 0.0 0.0 0.00 0.00 0.00 51 1021.0
20210723042559 20 0 0.0 0.0 0.00 0.00 0.00 51 1021.0
20210723042042 20 0 0.0 0.0 0.00 0.00 0.00 51 1021.1
20210723041629 20 0 0.0 0.0 0.00 0.00 0.00 51 1021.1
20210723041042 20 0 0.0 0.0 0.00 0.00 0.00 51 1021.2
20210723040637 20 0 0.0 0.0 0.00 0.00 0.00 51 1021.2
20210723040053 20 0 0.0 0.0 0.00 0.00 0.00 51 1021.2
20210723035541 20 0 0.0 0.0 0.00 0.00 0.00 51 1021.3
20210723035110 20 0 0.0 0.0 0.00 0.00 0.00 51 1021.3
20210723034600 20 0 0.0 0.0 0.00 0.00 0.00 51 1021.3
20210723034043 20 0 0.0 0.0 0.00 0.00 0.00 51 1021.4
20210723033619 20 0 0.0 0.0 0.00 0.00 0.00 51 1021.4
20210723033109 20 0 0.0 0.0 0.00 0.00 0.00 51 1021.5
20210723032548 20 0 0.0 0.0 0.00 0.00 0.00 51 1021.6
20210723032054 20 0 0.0 0.0 0.00 0.00 0.00 51 1021.6
20210723031640 20 0 0.0 0.0 0.00 0.00 0.00 51 1021.5
20210723031053 20 0 0.0 0.0 0.00 0.00 0.00 51 1021.7
20210723030541 21 0 0.0 0.0 0.00 0.00 0.00 51 1021.8
20210723030134 21 0 0.0 0.0 0.00 0.00 0.00 51 1021.7
20210723025548 21 0 0.0 0.0 0.00 0.00 0.00 51 1021.7
20210723025043 21 0 0.0 0.0 0.00 0.00 0.00 51 1021.6
20210723024644 21 0 0.0 0.0 0.00 0.00 0.00 51 1021.6
20210723024043 21 0 0.0 0.0 0.00 0.00 0.00 51 1021.5
20210723023541 21 0 0.0 0.0 0.00 0.00 0.00 51 1021.4
20210723023138 21 0 0.0 0.0 0.00 0.00 0.00 51 1021.3
20210723022539 21 0 0.0 0.0 0.00 0.00 0.00 51 1021.3
20210723022100 21 0 0.0 0.0 0.00 0.00 0.00 51 1021.3
20210723021715 21 0 0.0 0.0 0.00 0.00 0.00 51 1021.2
20210723021042 21 0 0.0 0.0 0.00 0.00 0.00 51 1021.0
20210723020542 22 0 0.0 0.0 0.00 0.00 0.00 50 1021.0
20210723020054 22 0 0.0 0.0 0.00 0.00 0.00 50 1021.0
20210723015552 22 0 0.0 0.0 0.00 0.00 0.00 50 1021.0
20210723015103 22 0 0.0 0.0 0.00 0.00 0.00 50 1021.1
20210723014650 22 0 0.0 0.0 0.00 0.00 0.00 50 1021.1
20210723014053 22 0 0.0 0.0 0.00 0.00 0.00 50 1021.1
20210723013543 22 0 0.0 0.0 0.00 0.00 0.00 50 1021.0
20210723013139 22 0 0.0 0.0 0.00 0.00 0.00 50 1021.0
20210723012547 23 0 0.0 0.0 0.00 0.00 0.00 49 1020.9
20210723012053 23 0 0.0 0.0 0.00 0.00 0.00 49 1020.9
20210723011652 23 0 0.0 0.0 0.00 0.00 0.00 49 1020.8
20210723011042 23 0 0.0 0.0 0.00 0.00 0.00 49 1020.7
20210723010542 23 0 0.0 0.0 0.00 0.00 0.00 49 1020.6
20210723010138 23 0 0.0 0.0 0.00 0.00 0.00 48 1020.6
20210723005550 23 0 0.0 0.0 0.00 0.00 0.00 48 1020.7
20210723005043 24 0 0.0 0.0 0.00 0.00 0.00 48 1020.7
20210723004711 24 0 0.0 0.0 0.00 0.00 0.00 47 1020.6
20210723004044 24 0 0.0 0.0 0.00 0.00 0.00 47 1020.5
20210723003544 25 0 0.0 0.0 0.00 0.00 0.00 47 1020.5
20210723003202 25 0 0.0 0.0 0.00 0.00 0.00 46 1020.4
20210723002605 25 0 0.0 0.0 0.00 0.00 0.00 46 1020.5
20210723002042 25 0 0.0 0.0 0.00 0.00 0.00 46 1020.5
20210723001748 25 0 0.0 0.0 0.00 0.00 0.00 45 1020.5
20210723001044 25 0 0.0 0.0 0.00 0.00 0.00 45 1020.5
20210723000615 25 0 0.0 0.0 0.00 0.00 0.00 45 1020.5
20210723000116 26 0 0.0 0.0 0.00 0.00 0.00 44 1020.4
20210722235609 26 0 0.0 0.0 0.00 0.00 0.00 44 1020.3
20210722235108 26 0 0.0 0.0 0.00 0.00 0.00 43 1020.3
20210722234624 26 0 0.0 0.0 0.00 0.00 0.00 42 1020.2
20210722234042 26 0 0.0 0.0 0.00 0.00 0.00 42 1020.2
20210722233545 26 0 0.0 0.0 0.00 0.00 0.00 41 1020.2
20210722233118 26 0 0.0 0.0 0.00 0.00 0.00 41 1020.1
20210722232548 26 0 0.0 0.0 0.00 0.00 0.00 40 1020.2
20210722232049 26 0 0.0 0.0 0.00 0.00 0.00 40 1020.1
20210722231642 26 0 0.0 0.0 0.00 0.00 0.00 39 1020.0
20210722231045 27 0 0.0 0.0 0.00 0.00 0.00 39 1019.9
20210722230542 27 0 0.0 0.0 0.00 0.00 0.00 38 1020.0
20210722230120 27 0 0.0 0.0 0.00 0.00 0.00 38 1019.9
20210722225543 27 0 0.0 0.0 0.00 0.00 0.00 37 1020.0
20210722225043 27 0 0.0 0.0 0.00 0.00 0.00 37 1020.0
20210722224712 27 0 0.0 0.0 0.00 0.00 0.00 36 1020.0
20210722224042 28 0 0.0 0.0 0.00 0.00 0.00 36 1020.0
20210722223543 28 0 0.0 3.2 0.00 0.00 0.00 35 1020.0
20210722223112 28 0 0.0 3.2 0.00 0.00 0.00 34 1019.9
20210722222542 28 0 0.0 0.0 0.00 0.00 0.00 34 1020.0
20210722222141 28 0 0.0 3.2 0.00 0.00 0.00 34 1020.0
20210722221627 28 0 0.0 3.2 0.00 0.00 0.00 34 1020.0
20210722221043 28 111 0.0 6.4 0.00 0.00 0.00 33 1020.0
20210722220606 28 139 0.0 6.4 0.00 0.00 0.00 34 1020.0
20210722220058 28 0 0.0 6.4 0.00 0.00 0.00 34 1020.0
20210722215542 28 0 1.6 6.4 0.00 0.00 0.00 34 1020.0
20210722215042 28 129 0.0 6.4 0.00 0.00 0.00 34 1020.0
20210722214753 28 0 0.0 1.6 0.00 0.00 0.00 34 1020.0
20210722214109 28 0 0.0 4.8 0.00 0.00 0.00 34 1020.0
20210722213541 28 0 0.0 4.8 0.00 0.00 0.00 34 1019.9
20210722213128 28 0 0.0 3.2 0.00 0.00 0.00 34 1020.0
20210722212544 28 0 0.0 3.2 0.00 0.00 0.00 34 1020.0
20210722212056 28 0 0.0 4.8 0.00 0.00 0.00 34 1020.1
20210722211621 28 0 0.0 4.8 0.00 0.00 0.00 34 1020.1
20210722211042 28 0 0.0 1.6 0.00 0.00 0.00 34 1020.2
20210722210545 28 0 0.0 4.8 0.00 0.00 0.00 34 1020.1
20210722210105 28 0 0.0 4.8 0.00 0.00 0.00 34 1020.2
20210722205542 28 96 0.0 3.2 0.00 0.00 0.00 33 1020.3
20210722205054 28 0 0.0 0.0 0.00 0.00 0.00 33 1020.3
20210722204733 28 0 0.0 0.0 0.00 0.00 0.00 33 1020.3
20210722204105 29 0 0.0 3.2 0.00 0.00 0.00 33 1020.3
20210722203558 29 0 0.0 3.2 0.00 0.00 0.00 33 1020.3
20210722203126 29 138 0.0 0.0 0.00 0.00 0.00 33 1020.3
20210722202542 28 0 0.0 0.0 0.00 0.00 0.00 33 1020.3
20210722202042 28 0 0.0 1.6 0.00 0.00 0.00 33 1020.4
20210722201708 29 0 0.0 3.2 0.00 0.00 0.00 33 1020.4
20210722201046 29 124 0.0 3.2 0.00 0.00 0.00 33 1020.4
20210722200544 29 135 0.0 1.6 0.00 0.00 0.00 33 1020.4
20210722200237 29 0 0.0 4.8 0.00 0.00 0.00 32 1020.5
20210722195544 29 0 0.0 6.4 0.00 0.00 0.00 32 1020.4
20210722195044 29 0 0.0 6.4 0.00 0.00 0.00 32 1020.4
20210722194637 29 139 0.0 4.8 0.00 0.00 0.00 32 1020.4
20210722194043 30 0 0.0 4.8 0.00 0.00 0.00 32 1020.3
20210722193542 30 0 0.0 3.2 0.00 0.00 0.00 32 1020.3
20210722193149 30 0 1.6 9.7 0.00 0.00 0.00 31 1020.3
20210722192542 30 133 3.2 9.7 0.00 0.00 0.00 31 1020.3
20210722192044 30 0 0.0 3.2 0.00 0.00 0.00 31 1020.3
20210722191648 30 131 0.0 3.2 0.00 0.00 0.00 31 1020.3
20210722191044 30 0 0.0 3.2 0.00 0.00 0.00 31 1020.4
20210722190543 30 0 0.0 3.2 0.00 0.00 0.00 31 1020.4
20210722190106 30 0 0.0 3.2 0.00 0.00 0.00 31 1020.3
20210722185545 30 0 0.0 6.4 0.00 0.00 0.00 31 1020.3
20210722185047 30 0 1.6 6.4 0.00 0.00 0.00 31 1020.4
20210722184646 30 0 0.0 1.6 0.00 0.00 0.00 31 1020.5
20210722184112 30 124 0.0 6.4 0.00 0.00 0.00 31 1020.6
20210722183603 30 0 0.0 6.4 0.00 0.00 0.00 31 1020.7
20210722183137 30 136 0.0 6.4 0.00 0.00 0.00 31 1020.8
20210722182542 30 123 0.0 4.8 0.00 0.00 0.00 31 1020.9
20210722182101 30 120 0.0 1.6 0.00 0.00 0.00 30 1021.0
20210722181615 30 0 0.0 6.4 0.00 0.00 0.00 32 1021.0
20210722181100 30 0 1.6 6.4 0.00 0.00 0.00 30 1021.0
20210722180602 30 0 0.0 4.8 0.00 0.00 0.00 31 1021.0
20210722180101 30 0 1.6 4.8 0.00 0.00 0.00 31 1021.1
20210722175543 30 0 0.0 0.0 0.00 0.00 0.00 31 1021.1
20210722175048 30 0 0.0 3.2 0.00 0.00 0.00 32 1021.1
20210722174608 30 0 0.0 3.2 0.00 0.00 0.00 32 1021.2
20210722174042 30 0 0.0 0.0 0.00 0.00 0.00 32 1021.2
20210722173615 30 0 0.0 0.0 0.00 0.00 0.00 34 1021.3
20210722173126 29 0 0.0 0.0 0.00 0.00 0.00 33 1021.4
20210722172541 29 0 0.0 4.8 0.00 0.00 0.00 34 1021.4
20210722172057 29 0 0.0 4.8 0.00 0.00 0.00 33 1021.5
20210722171658 29 126 0.0 1.6 0.00 0.00 0.00 33 1021.6
20210722171042 28 0 0.0 6.4 0.00 0.00 0.00 34 1021.7
20210722170550 28 0 1.6 6.4 0.00 0.00 0.00 34 1021.7
20210722170136 28 0 0.0 8.0 0.00 0.00 0.00 35 1021.7
20210722165541 28 115 0.0 8.0 0.00 0.00 0.00 35 1021.8
20210722165043 28 107 1.6 6.4 0.00 0.00 0.00 35 1021.8
20210722164616 28 103 0.0 6.4 0.00 0.00 0.00 36 1021.8
20210722164042 28 0 0.0 0.0 0.00 0.00 0.00 37 1021.8
20210722163550 28 0 0.0 1.6 0.00 0.00 0.00 37 1021.8
20210722163206 28 0 0.0 4.8 0.00 0.00 0.00 38 1021.8
20210722162543 27 0 1.6 6.4 0.00 0.00 0.00 38 1021.8
20210722162047 27 0 0.0 6.4 0.00 0.00 0.00 38 1021.8
20210722161607 27 115 0.0 6.4 0.00 0.00 0.00 39 1021.8
20210722161042 27 0 0.0 3.2 0.00 0.00 0.00 39 1021.9
20210722160551 27 0 0.0 4.8 0.00 0.00 0.00 40 1021.9
20210722160132 27 0 0.0 4.8 0.00 0.00 0.00 40 1021.9